Location: Hobi?a Gr?di?te
(45.4833°N, 22.7833°E)
Time: 04:39:47
(UTC+00:00)

CZ-4 R/B - Pass Details

Date: 28 January 2023
Orbit: 526 x 586 km, 97.7° (Epoch: 29 March)

Event Time Altitude Azimuth Distance (km) Brightness Sun altitude
Rises 18:11:20 0° 188° (S) 2,809 5.0 -28.4°
Reaches altitude 10° 18:13:40 10° 198° (SSW) 1,911 4.2 -28.8°
Maximum altitude 18:17:25 33° 263° (W) 1,001 3.1 -29.5°
Drops below altitude 10° 18:21:11 10° 328° (NNW) 1,908 4.4 -30.1°
Sets 18:23:31 0° 339° (NNW) 2,804 5.3 -30.5°
